Preview of NWS' New Version of Forecast
This preview is not operational and should not be used for support decisions.

Regional Weather Roundup (RWR)

Issued by Grand Forks, ND (FGF)

                            
273 
ASUS43 KFGF 212331
RWRFGF
PRAIRIE TO PINES  WEATHER ROUNDUP
NATIONAL WEATHER SERVICE EASTERN NORTH DAKOTA/GRAND FORKS ND
600 PM CDT THU JUN 21 2018

 **SATELLITE DATA USED TO AUGMENT SKY COVER AT AUTOMATED STATIONS**
 *****  WEATHER ACROSS EASTERN NORTH DAKOTA  *****
  
CITY           SKY/WX    TMP DP  RH WIND       PRES   REMARKS
GRAND FORKS    PTSUNNY   86  61  42 CALM      29.88F                  
GRAND FRKS AFB PTSUNNY   86  58  37 E6        29.89F                  
DEVILS LAKE    NOT AVBL                                               
FARGO          FAIR      85  58  39 E7        29.89F                  
WAHPETON ARPT  FAIR      82  50  32 SE5       29.91S                  
$$

 ***** WEATHER ACROSS CENTRAL AND WESTERN NORTH DAKOTA  *****
  
CITY           SKY/WX    TMP DP  RH WIND       PRES   REMARKS
BISMARCK       FAIR      84  52  33 SW8       29.96F                  
MINOT          FAIR      81  53  37 S7        29.93F                  
JAMESTOWN      FAIR      83  57  41 S5        29.92F                  
MINOT AFB      FAIR      81  53  37 S6        29.92F                  
GARRISON         N/A     77  57  50 CALM      29.95F                  
WILLISTON      FAIR      85  48  27 S8        29.92F                  
DICKINSON      FAIR      78  51  38 S8        29.96F                  
HETTINGER      FAIR      79  46  31 S7        29.98F                  
$$

 *****  OTHER AIRPORT OBSERVATIONS IN OUR AREA  *****
  
CITY           SKY/WX    TMP DP  RH WIND       PRES   REMARKS
WALHALLA       FAIR      86  59  39 W5        29.88F                  
GRAFTON AIRPOR FAIR      84  61  45 CALM      29.90F                  
VALLEY CITY AR FAIR      84  59  42 CALM      29.93S                  
CANDO          FAIR      84  54  34 VRB7      29.94F                  
CAVALIER APRT  FAIR      86  59  39 CALM      29.87F                  
GWINNER          N/A     82  57  42 CALM      29.91S                  
SHEYENNE NWR     N/A     85  58  39 E7        29.95S                  
ROLLA          FAIR      82  52  34 SW6       29.95F                  
 ***** THE ABOVE OBSERVATIONS ARE NON NWS ARE NOT QUALITY
       CONTROLLED AND MAY MIS-REPORT RAIN FOR SNOW...
$$

  *****  WEATHER ACROSS NORTHERN MINNESOTA  *****     
  
CITY           SKY/WX    TMP DP  RH WIND       PRES   REMARKS
FLAG ISLAND    FAIR      81  66  61 CALM      29.87F                  
WARROAD        FAIR      72  63  73 W9        29.92S                  
ROSEAU         PTSUNNY   73  63  68 E16G25    29.92R                  
HALLOCK        FAIR      88  52  29 CALM      29.87F                  
THF RVR FALLS  NOT AVBL                                               
BAUDETTE       FAIR      82  60  47 W14       29.90S                  
WASKISH        FAIR      82  63  51 CALM      29.91F                  
CROOKSTON      PTSUNNY   86  61  42 W5        29.89S                  
STEPHEN NDAWN    N/A     84  59  42 W3          N/A                   
GREENBUSH NDAW   N/A     81  64  57 W5          N/A                   
$$
  *****  WEATHER ACROSS CENTRAL AND WEST MINNESOTA  *****     
  
CITY           SKY/WX    TMP DP  RH WIND       PRES   REMARKS
FOSSTON        FAIR      84  57  39 CALM      29.92F                  
BEMIDJI        FAIR      79  56  45 CALM      29.93S                  
PARK RAPIDS    FAIR      78  59  51 S7        29.93S                  
ELBOW LAKE     FAIR      80  56  44 SE3       29.92S                  
WADENA         FAIR      75  59  57 SE5       29.93S                  
DETROIT LAKES  FAIR      79  55  44 S5        29.94S                  
MOORHEAD       FAIR      84  55  37 E5        29.90F                  
FERGUS FALLS   FAIR      81  55  41 NE5       29.92S                  
MORRIS MN      FAIR      81  59  47 E7        29.91S                  
STAPLES        FAIR      77  55  47 SE3       29.93F                  
$$
  *****  WEATHER ELSEWHERE ACROSS MINNESOTA  *****     
  
CITY           SKY/WX    TMP DP  RH WIND       PRES   REMARKS
DULUTH         FAIR      69  49  48 SE12      29.96F                  
INTRNTL FALLS  FAIR      85  55  35 CALM      29.91F                  
ELY            FAIR      81  46  30 E5        29.92F                  
CLOQUET        FAIR      66  46  48 E6        29.96S                  
WHEATON        FAIR      81  48  32 SE6       29.92S                  
BRAINERD       FAIR      75  57  53 SE8       29.93S                  
HIBBING        FAIR      81  54  39 NE3       29.92F                  
ALEXANDRIA     FAIR      80  57  45 E8        29.95S                  
SAINT CLOUD    FAIR      77  57  50 E5        29.90S                  
MINNEAPOLIS    CLOUDY    76  60  57 E10       29.88F                  
$$

  *****  WEATHER ACROSS SOUTH DAKOTA  *****
  
CITY           SKY/WX    TMP DP  RH WIND       PRES   REMARKS
SIOUX FALLS    CLOUDY    71  61  70 NE12      29.92S                  
BROOKINGS      NOT AVBL                                               
WATERTOWN      FAIR      77  58  51 E5        29.93F                  
HURON          FAIR      78  59  51 E3        29.93S                  
SISSETON         N/A     84  53  34 E7        29.90F                  
ABERDEEN       FAIR      84  57  39 E5        29.92F                  
MITCHELL       FAIR      74  60  61 NE9       29.93S                  
PIERRE         FAIR      80  56  43 NE7       29.96S                  
MOBRIDGE       FAIR      80  55  42 NW3       29.95F                  
RAPID CITY     FAIR      76  55  48 S10G16    30.01F                  
$$

  *****  SOME WEATHER IN NEARBY STATES *****
  
CITY           SKY/WX    TMP DP  RH WIND       PRES   REMARKS
GLASGOW MT     FAIR      85  50  29 SE12      29.86F                  
GREAT FALLS MT FAIR      77  54  44 W16       29.89F                  
CHEYENNE WY    FAIR      75  52  44 S12       30.12F                  
SCOTTSBLUFF NE FAIR      80  53  39 E6        30.03F                  
OMAHA NE       PTSUNNY   75  64  68 N13       29.78S                  
DES MOINES IA  CLOUDY    71  67  87 N14G20    29.73R                  
DAVENPORT IA   LGT RAIN  67  65  93 NE18G24   29.75R                  
CHICAGO IL     CLOUDY    66  61  84 E14       29.78R                  
EAU CLAIRE WI  FAIR      76  55  48 VRB6      29.86F                  
LA CROSSE WI   LGT RAIN  66  63  90 E5        29.86F                  
$$

  *****  SOME NATIONAL WEATHER *****
  
CITY           SKY/WX    TMP DP  RH WIND       PRES   REMARKS
LA GUARDIA NY  PTSUNNY   83  59  44 SE9       29.76R                  
RALEIGH NC     PTSUNNY   87  73  62 W3        29.76S HX  94           
ATLANTA GA     LGT RAIN  77  71  82 SW9       29.88R                  
NEW ORLEANS LA PTSUNNY   88  76  67 SW7       29.89F HX  99           
OKLAHOMA CITY  PTSUNNY   91  54  28 NW15      29.86F                  
ALBUQUERQUE NM FAIR      92  37  14 S8        30.08F                  
SALT LAKE CITY FAIR      92  29  10 N14       29.98F                  
LOS ANGELES CA FAIR      71  60  68 W13       29.91F                  
BOISE ID       FAIR      81  50  33 NW15      30.02S                  
SEATTLE WA     CLOUDY    68  53  58 SW10      30.14F                  
$$

*** WEATHER ACROSS MANITOBA...SASKATCHEWAN AND ONTARIO ***
                ***ONTARIO***
  
CITY           SKY/WX    TMP DP  RH WIND       PRES   REMARKS
GERALDTON      MOSUNNY   77  46  33 W8        29.88F                  
THUNDER BAY    SUNNY     68  52  56 E8        29.94F                  
SIOUX LOOKOUT  MOSUNNY   86  57  37 SW10G18   29.84F                  
TORONTO        MOSUNNY   68  41  37 SE10      29.91S                  
BIG TROUT LK   MOSUNNY   82  52  34 NE10G17   29.74R                  
PICKLE LAKE    PTSUNNY   79  63  57 S8        29.79F                  
DRYDEN         PTSUNNY   79  61  53 SW5       29.87F                  
KENORA         PTSUNNY   84  57  39 SW10      29.88F                  
$$      
                *** MANITOBA***
  
CITY           SKY/WX    TMP DP  RH WIND       PRES   REMARKS
BRANDON        CLOUDY    81  61  50 W7        29.90F                  
DAUPHIN        SUNNY     86  52  30 W13G18    29.86F                  
ISLAND LAKE    MOSUNNY   84  54  34 N12G18    29.79R                  
PILOT MOUND      N/A     81  57  44 W5          N/A                   
THE PAS        SUNNY     86  59  39 N2        29.77F THUNDER          
THOMPSON       MOSUNNY   84  54  34 E8        29.84S                  
WINNIPEG       PTSUNNY   88  57  35 W5        29.86F                  
LYNN LAKE      MOSUNNY   84  50  30 SE6       29.84F                  
CHURCHILL      MOSUNNY   54  36  50 VRB2      30.02S                  
GILLAM         MOSUNNY   66  43  42 E10G17    29.93F                  
$$
                ***SASKATCHEWAN***
  
CITY           SKY/WX    TMP DP  RH WIND       PRES   REMARKS
ESTEVAN        PTSUNNY   81  50  34 SE5       29.93F                  
KINDERSLEY     PTSUNNY   81  52  36 E10       29.84F                  
LLOYDMINSTER   CLOUDY    82  50  32 S8        29.86F                  
PRINCE ALBERT  CLOUDY    86  46  25 S6        29.86F                  
REGINA         PTSUNNY   79  50  36 S6        29.90F                  
YORKTON        MOSUNNY   84  45  24 SW9       29.89F                  
N. BATTLEFORD  PTSUNNY   84  54  34 S13       29.86F                  
LA RONGE       CLOUDY    82  54  36 W10       29.84R                  
SASKATOON      PTSUNNY   84  46  26 S9        29.86F                  
SWIFT CURRENT  MOSUNNY   82  48  30 SE16G22   29.86F                  
$$
NOTE: THESE ARE AUTOMATED STATIONS WITH LIMITED QUALITY CONTROL
      "FAIR" INDICATES FEW OR NO CLOUDS BELOW 12,000 FEET WITH NO
      SIGNIFICANT WEATHER AND/OR OBSTRUCTIONS TO VISIBILITY.
      SKY/WX - SKY CONDITION AND SIGNIFICANT WEATHER.
      TMP - AIR TEMPERATURE.    DP   - DEWPOINT TEMPERATURE.
      RH  - RELATIVE HUMIDITY.  PRES - PRESSURE.
      HX  - HEAT INDEX.         WCI  - WIND CHILL INDEX.
$